Rhinelander, WI

4:11 AM CDT on September 26, 2016 (GMT -0500)
Rhinelander-Oneida County

Weather History for KRHI - January, 2014

Change the Weather History Date:

Wednesday, January 22, 2014

  Actual Average Record
Temperature  
Mean Temperature -1 °F 12 °F  
Max Temperature 1 °F 21 °F 45 °F (1989)
Min Temperature -4 °F 3 °F -29 °F (1924)
Degree Days  
Heating Degree Days 66 53  
Month to date heating degree days 1333 1161  
Since 1 July heating degree days 5338 4787  
Cooling Degree Days 0 0  
Month to date cooling degree days 0 0  
Year to date cooling degree days 0 0  
Moisture  
Dew Point -8 °F    
Average Humidity 73    
Maximum Humidity 87    
Minimum Humidity 59    
Precipitation  
Precipitation 0.06 in 0.04 in 0.60 in (1999)
Month to date precipitation 0.78 0.80  
Year to date precipitation 0.78 0.80  
Snow  
Snow 0.80 in - 7.00 in (1999)
Month to date snowfall 13.9  
Since 1 July snowfall 46.8  
Snow Depth 18.00 in    
Sea Level Pressure  
Sea Level Pressure 29.90 in    
Wind  
Wind Speed 10 mph (WNW)    
Max Wind Speed 18 mph    
Max Gust Speed 28 mph    
Visibility 4 miles    
Events Snow    
T = Trace of Precipitation, MM = Missing Value Source: NWS Daily Summary

Daily Weather History Graph

Daily Weather History Graph

Search for Another Location

Airport or City:

Trip Planner

Search our weather history database for the weather conditions in past years. The results will help you decide how hot, cold, wet, or windy it might be!

Date:

Astronomy

Jan. 22, 2014 Rise Set
Actual Time 7:29 AM CST 4:50 PM CST
Civil Twilight 6:56 AM CST 5:22 PM CST
Nautical Twilight 6:20 AM CST 5:58 PM CST
Astronomical Twilight 5:45 AM CST 6:34 PM CST
Moon 11:44 PM CST (1/22) 10:10 AM CST (1/22)
Length of Visible Light 10h 25m
Length of Day
9h 20m
Waning Gibbous, 65% of the Moon is Illuminated
Jan 22
Waning Gibbous
Jan 23
Last Quarter
Jan 30
New
Feb 6
First Quarter
Feb 14
Full

Hourly Weather History & Observations

Time (CST) Temp. Windchill Dew Point Humidity Pressure Visibility Wind Dir Wind Speed Gust Speed Precip Events Conditions
12:07 AM -4.0 °F -17.8 °F -9.0 °F 79% 29.94 in 2.5 mi SSW 6.9 mph - 0.00 in Snow Light Snow
12:53 AM -4.0 °F -20.2 °F -8.0 °F 83% 30.04 in 2.0 mi SSW 9.2 mph - 0.00 in Snow Light Snow
1:07 AM -4.0 °F -20.2 °F -8.0 °F 83% 29.89 in 1.8 mi SSW 9.2 mph - 0.00 in Snow Light Snow
1:35 AM -2.9 °F -16.5 °F -8.0 °F 79% 29.87 in 2.0 mi SSW 6.9 mph - 0.00 in Snow Light Snow
1:48 AM -2.2 °F -16.8 °F -7.6 °F 78% 29.87 in 1.8 mi SSW 8.1 mph - 0.00 in Snow Light Snow
1:53 AM -2.9 °F -18.8 °F -7.1 °F 82% 30.00 in 1.8 mi SSW 9.2 mph - 0.01 in Snow Light Snow
2:41 AM -2.0 °F -17.7 °F -6.0 °F 83% 29.84 in 1.8 mi SSW 9.2 mph - 0.00 in Snow Light Snow
2:53 AM -2.0 °F -18.7 °F -7.1 °F 79% 29.97 in 2.0 mi SSW 10.4 mph - 0.00 in Snow Light Snow
3:02 AM -2.0 °F -18.7 °F -7.1 °F 79% 29.84 in 1.8 mi SW 10.4 mph - 0.00 in Snow Light Snow
3:17 AM -2.0 °F -18.7 °F -7.1 °F 79% 29.83 in 2.0 mi SW 10.4 mph - 0.00 in Snow Light Snow
3:53 AM -2.0 °F -16.6 °F -7.1 °F 79% 29.95 in 1.8 mi SW 8.1 mph - 0.00 in Snow Light Snow
4:26 AM -2.0 °F -16.6 °F -7.1 °F 79% 29.81 in 2.5 mi SW 8.1 mph - 0.00 in Snow Light Snow
4:35 AM -2.0 °F -16.6 °F -7.1 °F 79% 29.81 in 3.0 mi SW 8.1 mph - 0.00 in Snow Light Snow
4:53 AM -2.0 °F -16.6 °F -7.1 °F 79% 29.93 in 5.0 mi SW 8.1 mph - 0.00 in Snow Light Snow
5:53 AM -2.0 °F -15.4 °F -7.1 °F 79% 29.92 in 6.0 mi SW 6.9 mph - 0.00 in Snow Light Snow
6:53 AM -2.0 °F -16.6 °F -7.1 °F 79% 29.91 in 6.0 mi SW 8.1 mph - 0.00 in Snow Light Snow
7:53 AM -2.0 °F -15.4 °F -6.0 °F 83% 29.90 in 10.0 mi West 6.9 mph - 0.00 in   Overcast
8:38 AM -0.9 °F -12.7 °F -7.1 °F 75% 29.76 in 2.5 mi WNW 5.8 mph - 0.00 in Snow Light Snow
8:53 AM -0.9 °F -16.4 °F -7.1 °F 75% 29.91 in 2.0 mi WNW 9.2 mph - 0.00 in Snow Light Snow
9:13 AM -0.9 °F -15.3 °F -8.0 °F 72% 29.77 in 1.2 mi WNW 8.1 mph - 0.00 in Snow Light Snow
9:44 AM -0.9 °F -15.3 °F -8.0 °F 72% 29.78 in 2.5 mi WNW 8.1 mph - 0.00 in Snow Light Snow
9:53 AM -0.9 °F -17.4 °F -9.0 °F 69% 29.91 in 4.0 mi NW 10.4 mph - 0.00 in   Haze
10:35 AM -0.0 °F -15.3 °F -8.0 °F 69% 29.78 in 2.5 mi WNW 9.2 mph - N/A   Haze
10:45 AM -0.0 °F -16.3 °F -8.0 °F 69% 29.78 in 5.0 mi WNW 10.4 mph - N/A   Haze
10:53 AM -0.0 °F -14.2 °F -8.0 °F 69% 29.91 in 7.0 mi NW 8.1 mph - N/A   Overcast
11:14 AM -0.0 °F -13.0 °F -9.0 °F 66% 29.77 in 10.0 mi Variable 6.9 mph - N/A   Overcast
11:53 AM -0.0 °F -15.3 °F -9.9 °F 63% 29.92 in 7.0 mi NW 9.2 mph - 0.00 in   Overcast
12:17 PM -0.0 °F -18.0 °F -9.0 °F 66% 29.78 in 2.5 mi NNW 12.7 mph - 0.00 in Snow Light Snow
12:25 PM -0.0 °F -18.0 °F -9.9 °F 63% 29.78 in 4.0 mi NW 12.7 mph 20.7 mph 0.00 in Snow Light Snow
12:32 PM 1.0 °F -16.6 °F -9.9 °F 60% 29.78 in 6.0 mi NW 12.7 mph 20.7 mph 0.00 in   Overcast
12:38 PM -0.0 °F -20.1 °F -9.0 °F 66% 29.78 in 2.5 mi NW 16.1 mph 23.0 mph 0.00 in Snow Light Snow
12:41 PM -0.0 °F -19.4 °F -8.0 °F 69% 29.78 in 1.0 mi NW 15.0 mph 23.0 mph 0.00 in Snow Light Snow
12:48 PM -0.4 °F -18.4 °F -9.4 °F 66% 29.79 in 0.8 mi NW 12.7 mph 24.2 mph 0.00 in Snow Light Snow
12:51 PM -0.4 °F -16.7 °F -9.4 °F 66% 29.79 in 1.2 mi NNW 10.4 mph 24.2 mph 0.00 in Snow Light Snow
12:53 PM 1.0 °F -16.6 °F -9.0 °F 63% 29.92 in 3.0 mi NNW 12.7 mph 19.6 mph 0.00 in Snow Light Snow
1:00 PM 1.0 °F -19.9 °F -9.9 °F 60% 29.79 in 2.5 mi NNW 18.4 mph 27.6 mph 0.00 in Snow Light Snow
1:12 PM -0.0 °F -14.2 °F -9.9 °F 63% 29.79 in 4.0 mi NW 8.1 mph 17.3 mph 0.00 in   Haze
1:53 PM -0.0 °F -18.7 °F -11.0 °F 60% 29.94 in 5.0 mi NW 13.8 mph 21.9 mph 0.00 in   Haze
2:09 PM -0.9 °F -16.4 °F -9.0 °F 69% 29.81 in 1.8 mi NNW 9.2 mph 20.7 mph 0.00 in Snow Light Snow
2:24 PM -0.9 °F -16.4 °F -9.0 °F 69% 29.82 in 1.2 mi NNW 9.2 mph - 0.00 in Snow Light Snow
2:34 PM -2.0 °F -20.5 °F -11.0 °F 66% 29.82 in 3.0 mi NW 12.7 mph 19.6 mph 0.00 in Snow Light Snow
2:53 PM -0.9 °F -20.6 °F -11.9 °F 60% 29.97 in 6.0 mi NW 15.0 mph 24.2 mph 0.00 in   Overcast
3:02 PM -0.9 °F -18.3 °F -13.0 °F 57% 29.84 in 9.0 mi NNW 11.5 mph 23.0 mph 0.00 in   Mostly Cloudy
3:50 PM -0.4 °F -15.7 °F -11.2 °F 60% 29.87 in 7.0 mi NW 9.2 mph - 0.00 in   Overcast
3:53 PM -0.9 °F -18.3 °F -11.0 °F 62% 30.01 in 6.0 mi NW 11.5 mph 19.6 mph 0.00 in   Haze
4:17 PM -2.0 °F -15.4 °F -9.9 °F 69% 29.88 in 1.8 mi NW 6.9 mph 20.7 mph 0.00 in Snow Light Snow
4:21 PM -2.0 °F -17.7 °F -9.0 °F 72% 29.88 in 2.0 mi WNW 9.2 mph 17.3 mph 0.00 in Snow Light Snow
4:35 PM -2.0 °F -18.7 °F -9.0 °F 72% 29.89 in 3.0 mi WNW 10.4 mph 18.4 mph 0.00 in Snow Light Snow
4:43 PM -2.0 °F -19.6 °F -9.0 °F 72% 29.89 in 2.5 mi WNW 11.5 mph - 0.00 in Snow Light Snow
4:53 PM -2.0 °F -15.4 °F -9.9 °F 69% 30.03 in 5.0 mi WNW 6.9 mph - 0.00 in   Haze
5:13 PM -2.0 °F -18.7 °F -8.0 °F 76% 29.90 in 2.0 mi WNW 10.4 mph 17.3 mph 0.00 in Snow Light Snow
5:37 PM -2.0 °F -21.2 °F -8.0 °F 76% 29.91 in 3.0 mi WNW 13.8 mph - 0.00 in Snow Light Snow
5:45 PM -2.0 °F -19.6 °F -7.1 °F 79% 29.92 in 2.0 mi WNW 11.5 mph - 0.00 in Snow Light Snow
5:53 PM -2.0 °F -16.6 °F -7.1 °F 79% 30.06 in 1.5 mi WNW 8.1 mph 19.6 mph 0.00 in Snow Light Snow
6:20 PM -2.0 °F -15.4 °F -7.1 °F 79% 29.94 in 2.5 mi NW 6.9 mph - 0.00 in Snow Light Snow
6:29 PM -2.9 °F -16.5 °F -7.1 °F 82% 29.94 in 5.0 mi NW 6.9 mph - 0.00 in   Mostly Cloudy
6:43 PM -2.0 °F -17.7 °F -8.0 °F 76% 29.95 in 10.0 mi NW 9.2 mph - 0.00 in   Scattered Clouds
6:53 PM -0.9 °F -14.1 °F -8.0 °F 72% 30.09 in 10.0 mi NNW 6.9 mph - 0.00 in   Partly Cloudy
7:53 PM -0.9 °F -15.3 °F -9.0 °F 69% 30.11 in 10.0 mi NNW 8.1 mph - N/A   Mostly Cloudy
8:53 PM -0.9 °F -19.9 °F -8.0 °F 72% 30.13 in 4.0 mi NNW 13.8 mph 21.9 mph N/A   Haze
9:53 PM -0.9 °F -19.1 °F -8.0 °F 72% 30.16 in 9.0 mi North 12.7 mph 19.6 mph 0.00 in   Overcast
10:53 PM -0.9 °F -17.4 °F -8.0 °F 72% 30.19 in 6.0 mi NNW 10.4 mph 23.0 mph 0.00 in   Haze
11:53 PM -0.9 °F -15.3 °F -8.0 °F 72% 30.22 in 9.0 mi NNW 8.1 mph 21.9 mph 0.00 in   Partly Cloudy